Date String (YYYY-MM-DD hh:mm:ss) UTC,Instrument flags,Ambient pressure (hPa),Sample flow (lpm),Bypass flow (lpm),Sample temperature (°C),Ambient temperature (°C),ASC tube jacket temperature (°C),LED temperature (°C),Box temperature (°C),Sample RH (%),Span deviation,Mass concentration (μg/m³),Mass concentration (μg/m³),Mass concentration (μg/m³)
DateTimeUTC,F1_M11,P_M11,Q1_M11,Q2_M11,T1_M11,T2_M11,T3_M11,T4_M11,T5_M11,U1_M11,ZSPAN_M11,X0_M11,X2_M11,X1_M11
2021-12-02 06:00:00,,0829.2,5.00,0.00,30.1,29.1,00.0,39.2,31.7,08.3,0000.0,0002.95,0000.57,0000.28
2021-12-02 06:01:00,,0829.3,5.00,0.00,30.1,29.1,00.0,39.2,31.7,08.3,0000.0,0003.25,0000.57,0000.28
2021-12-02 06:02:00,,0829.2,5.00,0.00,30.1,29.1,00.0,39.1,31.7,08.3,0000.0,0003.46,0000.59,0000.28
2021-12-02 06:03:00,,0829.2,4.99,0.00,30.1,29.1,00.0,39.1,31.7,08.3,0000.0,0002.32,0000.61,0000.29
2021-12-02 06:04:00,,0829.2,5.00,0.00,30.1,29.1,00.0,39.1,31.7,08.3,0000.0,0002.16,0000.57,0000.29
2021-12-02 06:05:00,,0829.2,5.01,0.00,30.1,29.1,00.0,39.1,31.7,08.3,0000.0,0002.13,0000.56,0000.28
2021-12-02 06:06:00,,0829.2,5.01,0.00,30.1,29.1,00.0,39.1,31.7,08.3,0000.0,0002.68,0000.59,0000.29
2021-12-02 06:07:00,,0829.3,4.99,0.00,30.1,29.1,00.0,39.1,31.7,08.3,0000.0,0003.27,0000.59,0000.29
2021-12-02 06:08:00,,0829.2,5.00,0.00,30.1,29.1,00.0,39.1,31.7,08.2,0000.0,0003.16,0000.59,0000.29
2021-12-02 06:09:00,,0829.3,5.00,0.00,30.1,29.1,00.0,39.1,31.7,08.2,0000.0,0003.15,0000.59,0000.29
2021-12-02 06:10:00,,0829.2,5.00,0.00,30.1,29.1,00.0,39.1,31.7,08.2,0000.0,0003.09,0000.57,0000.29
2021-12-02 06:11:00,,0829.3,5.01,0.00,30.1,29.1,00.0,39.1,31.7,08.2,0000.0,0003.15,0000.58,0000.29
2021-12-02 06:12:00,,0829.2,4.99,0.00,30.1,29.1,00.0,39.1,31.7,08.2,0000.0,0002.80,0000.56,0000.29
2021-12-02 06:13:00,,0829.2,5.01,0.00,30.1,29.1,00.0,39.1,31.7,08.1,0000.0,0002.18,0000.52,0000.29
2021-12-02 06:14:00,,0829.3,5.01,0.00,30.1,29.1,00.0,39.1,31.7,08.1,0000.0,0002.06,0000.47,0000.28
2021-12-02 06:15:00,,0829.2,4.99,0.00,30.1,29.1,00.0,39.1,31.8,08.0,0000.0,0001.95,0000.45,0000.28
2021-12-02 06:16:00,,0829.2,4.99,0.00,30.1,29.1,00.0,39.1,31.8,08.0,0000.0,0002.57,0000.45,0000.28
2021-12-02 06:17:00,,0829.2,5.02,0.00,30.1,29.1,00.0,39.1,31.7,08.0,0000.0,0002.72,0000.42,0000.28
2021-12-02 06:18:00,,0829.3,5.00,0.00,30.1,29.1,00.0,39.1,31.7,07.9,0000.0,0001.87,0000.41,0000.27
2021-12-02 06:19:00,,0829.3,4.99,0.00,30.1,29.1,00.0,39.1,31.7,07.9,0000.0,0001.90,0000.43,0000.27
2021-12-02 06:20:00,,0829.3,5.00,0.00,30.1,29.1,00.0,39.1,31.7,07.9,0000.0,0001.82,0000.41,0000.27
2021-12-02 06:21:00,,0829.3,5.00,0.00,30.1,29.1,00.0,39.1,31.7,08.0,0000.0,0001.81,0000.40,0000.27
2021-12-02 06:22:00,,0829.3,5.00,0.00,30.1,29.1,00.0,39.1,31.8,08.0,0000.0,0001.84,0000.41,0000.26
2021-12-02 06:23:00,,0829.3,5.00,0.00,30.1,29.1,00.0,39.1,31.8,08.0,0000.0,0001.89,0000.42,0000.26
2021-12-02 06:24:00,,0829.3,5.01,0.00,30.1,29.1,00.0,39.1,31.7,08.0,0000.0,0001.90,0000.42,0000.26
2021-12-02 06:25:00,,0829.2,5.00,0.00,30.1,29.1,00.0,39.1,31.8,07.9,0000.0,0001.89,0000.42,0000.26
2021-12-02 06:26:00,,0829.2,4.99,0.00,30.1,29.1,00.0,39.1,31.8,07.9,0000.0,0001.86,0000.41,0000.25
2021-12-02 06:27:00,,0829.3,5.01,0.00,30.1,29.1,00.0,39.1,31.7,08.0,0000.0,0001.28,0000.43,0000.25
2021-12-02 06:28:00,,0829.3,5.00,0.00,30.1,29.2,00.0,39.1,31.7,07.9,0000.0,0000.85,0000.46,0000.26
2021-12-02 06:29:00,,0829.2,5.00,0.00,30.1,29.1,00.0,39.1,31.8,07.9,0000.0,0000.83,0000.44,0000.26
2021-12-02 06:30:00,,0829.2,5.00,0.00,30.1,29.1,00.0,39.1,31.8,07.8,0000.0,0000.86,0000.45,0000.26
2021-12-02 06:31:00,,0829.2,5.00,0.00,30.1,29.1,00.0,39.1,31.8,07.8,0000.0,0002.03,0000.45,0000.25
2021-12-02 06:32:00,,0829.3,4.99,0.00,30.1,29.2,00.0,39.1,31.8,07.9,0000.0,0002.08,0000.45,0000.25
2021-12-02 06:33:00,,0829.3,5.01,0.00,30.1,29.1,00.0,39.1,31.7,07.8,0000.0,0002.01,0000.44,0000.25
2021-12-02 06:34:00,,0829.3,5.01,0.00,30.1,29.1,00.0,39.1,31.8,07.8,0000.0,0001.94,0000.42,0000.24
2021-12-02 06:35:00,,0829.3,4.99,0.00,30.1,29.1,00.0,39.1,31.7,07.8,0000.0,0001.93,0000.41,0000.24
2021-12-02 06:36:00,,0829.3,4.99,0.00,30.1,29.1,00.0,39.1,31.7,07.9,0000.0,0001.93,0000.41,0000.24
2021-12-02 06:37:00,,0829.3,5.01,0.00,30.1,29.1,00.0,39.1,31.7,07.9,0000.0,0001.94,0000.42,0000.24
2021-12-02 06:38:00,,0829.3,4.99,0.00,30.1,29.1,00.0,39.1,31.7,07.9,0000.0,0001.90,0000.41,0000.23
2021-12-02 06:39:00,,0829.2,5.01,0.00,30.1,29.1,00.0,39.1,31.8,08.0,0000.0,0001.85,0000.39,0000.23
2021-12-02 06:40:00,,0829.2,5.00,0.00,30.1,29.1,00.0,39.1,31.8,08.0,0000.0,0001.83,0000.38,0000.23
2021-12-02 06:41:00,,0829.2,5.00,0.00,30.1,29.1,00.0,39.1,31.8,07.9,0000.0,0001.77,0000.36,0000.24
2021-12-02 06:42:00,,0829.2,4.99,0.00,30.1,29.1,00.0,39.1,31.8,07.9,0000.0,0000.66,0000.35,0000.24
2021-12-02 06:43:00,,0829.2,5.01,0.00,30.1,29.1,00.0,39.1,31.8,07.9,0000.0,0000.52,0000.35,0000.23
2021-12-02 06:44:00,,0829.2,4.99,0.00,30.1,29.1,00.0,39.1,31.8,07.9,0000.0,0000.46,0000.33,0000.23
2021-12-02 06:45:00,,0829.3,4.99,0.00,30.1,29.1,00.0,39.1,31.7,07.9,0000.0,0000.46,0000.32,0000.23
2021-12-02 06:46:00,,0829.2,5.00,0.00,30.1,29.2,00.0,39.1,31.8,08.0,0000.0,0000.52,0000.33,0000.23
2021-12-02 06:47:00,,0829.2,5.00,0.00,30.1,29.2,00.0,39.1,31.8,08.0,0000.0,0000.61,0000.34,0000.23
2021-12-02 06:48:00,,0829.2,4.99,0.00,30.1,29.2,00.0,39.1,31.8,08.0,0000.0,0000.59,0000.33,0000.23
2021-12-02 06:49:00,,0829.2,4.99,0.00,30.1,29.2,00.0,39.1,31.8,08.0,0000.0,0000.59,0000.32,0000.23
2021-12-02 06:50:00,,0829.2,5.01,0.00,30.1,29.2,00.0,39.1,31.8,08.0,0000.0,0000.59,0000.32,0000.23
2021-12-02 06:51:00,,0829.2,4.99,0.00,30.1,29.1,00.0,39.1,31.8,08.0,0000.0,0000.60,0000.32,0000.23
2021-12-02 06:52:00,,0829.2,5.01,0.00,30.1,29.1,00.0,39.1,31.8,08.1,0000.0,0000.64,0000.32,0000.23
2021-12-02 06:53:00,,0829.2,4.99,0.00,30.0,29.1,00.0,39.1,31.8,08.1,0000.0,0000.63,0000.32,0000.24
2021-12-02 06:54:00,,0829.3,5.02,0.00,30.0,29.1,00.0,39.1,31.7,08.1,0000.0,0000.61,0000.31,0000.24
2021-12-02 06:55:00,,0829.3,4.98,0.00,30.0,29.1,00.0,39.1,31.8,08.1,0000.0,0000.64,0000.32,0000.24
2021-12-02 06:56:00,,0829.2,5.02,0.00,30.0,29.1,00.0,39.0,31.8,08.1,0000.0,0000.67,0000.33,0000.25
2021-12-02 06:57:00,,0829.2,4.98,0.00,30.0,29.1,00.0,39.0,31.8,08.1,0000.0,0000.62,0000.33,0000.25
2021-12-02 06:58:00,,0829.2,5.01,0.00,30.1,29.1,00.0,39.0,31.8,08.2,0000.0,0000.56,0000.33,0000.25
2021-12-02 06:59:00,,0829.2,4.99,0.00,30.1,29.2,00.0,39.0,31.8,08.2,0000.0,0000.56,0000.33,0000.25
